Regional Weather Roundup
Issued by NWS

Home | Current Version | Previous Version | Graphics & Text | Print | Product List | Glossary On
Versions: 1 2 3 4 5 6 7 8 9 10 11 12 13 14 15 16 17 18 19 20 21 22 23 24 25 26 27
000
ASUS45 KSLC 222110
RWRUT

UTAH REGIONAL WEATHER ROUNDUP
NATIONAL WEATHER SERVICE SALT LAKE CITY UT
200 PM MST SUN JAN 22 2017

UTZ001>011-023>025-222200-

NORTHERN UTAH

CITY           SKY/WX    TMP DP  RH WIND       PRES   REMARKS
BRIGHAM CITY     N/A     33  24  69 NE5       29.85F WCI  28
HILL AFB       CLOUDY    35  22  58 S14       29.82F WCI  25
LOGAN          CLOUDY    27  23  85 CALM      29.83F
OGDEN          CLOUDY    35  23  61 S9        29.82F WCI  28
SALT LAKE CITY CLOUDY    38  22  52 S22G30    29.82F WCI  27
TOOELE VALLEY  LGT RAIN  37  30  75 S25G35    29.82S WCI  26
WENDOVER       CLOUDY    28  27  93 NE6       29.80F VSB 3/4 WCI  22
HEBER CITY     CLOUDY    36  18  48 S5        29.85F WCI  32
WEST JORDAN    CLOUDY    34  29  84 S15       29.84S WCI  24

$$

UTZ011>015-024>027-222200-

CENTRAL/NORTHEAST UTAH

CITY           SKY/WX    TMP DP  RH WIND       PRES   REMARKS
PROVO AIRPORT  CLOUDY    36  24  62 S7        29.89F WCI  30
MOAB/CANYONLAN CLOUDY    38  26  62 SE7       30.00F WCI  33
DELTA          CLOUDY    36  28  75 S12       29.85F WCI  27
PRICE          CLOUDY    27  18  69 CALM      29.97F
RICHFIELD      MOSUNNY   36  19  51 NE2       29.88F
ROOSEVELT      CLOUDY    28  21  74 CALM      30.02F
VERNAL         CLOUDY    28  19  69 N3        29.99F

$$

UTZ013>016-019>022-027-222200-

SOUTHERN UTAH

CITY           SKY/WX    TMP DP  RH WIND       PRES   REMARKS
BRYCE CANYON   SNOW      24  22  91 SE16      29.97F VSB 1/2 WCI  11
CEDAR CITY     CLOUDY    36  25  64 S24G36    29.89F WCI  24
MILFORD        PTSUNNY   39  28  64 S32G38    29.85F WCI  27
ST GEORGE      CLOUDY    43  36  75 E15       30.06F
HANKSVILLE     CLOUDY    41  27  56 MISG      30.01F
KANAB          FOG       34  34 100 CALM      30.10F VSB 1
BLANDING       CLOUDY    29  24  81 N3        30.16F

$$

REGIONAL REPORTS     COLORADO/ARIZONA

CITY           SKY/WX    TMP DP  RH WIND       PRES   REMARKS
CRAIG, CO      CLOUDY    25  15  66 CALM      29.98F
GRAND JUNCTION SUNNY     41  24  51 S20       30.01F
RIFLE, CO      CLOUDY    35  20  54 CALM      30.01F
MONTROSE, CO   CLOUDY    36  14  40 N5        30.05F WCI  32
CORTEZ, CO     CLOUDY    31  23  72 CALM      30.08F
COLORADO CITY  LGT SNOW  34  34 100 E7        30.07F WCI  28
PAGE, AZ       CLOUDY    42  26  53 S8        30.05F
GRAND CANYON   SNOW      29  28  96 S14       30.07F VSB 1/4 WCI  18
KINGMAN, AZ    LGT RAIN  46  34  62 S17       30.06F
FLAGSTAFF, AZ  LGT SNOW  28  26  92 SW14G23   30.08F FOG     WCI  17

$$

REGIONAL REPORTS    NEVADA/IDAHO/WYOMING

CITY           SKY/WX    TMP DP  RH WIND       PRES   REMARKS
LAS VEGAS, NV  LGT RAIN  45  39  79 S3        29.98F
ELY, NY        MIX PCPN  32  25  75 SE33G46   29.76F WCI  17
ELKO, NV       CLOUDY    35  28  75 S20G32    29.68F WCI  24
POCATELLO, ID  CLOUDY    36  22  56 S8G20     29.77S WCI  30
BURLEY, ID     LGT SNOW  36  27  69 S21G29    29.70F WCI  25
FORT BRIDGER,  CLOUDY    23  13  65 E6        29.84F WCI  15
EVANSTON, WY   CLOUDY    27  12  53 CALM      29.79F
ROCK SPRINGS,  CLOUDY    25  15  66 SE9       29.84F WCI  15

$$




USA.gov is the U.S. government's official web portal to all federal, state and local government web resources and services.